Regional Weather Roundup
Issued by NWS Green Bay, WI

Home | Current Version | Previous Version | Graphics & Text | Print | Product List | Glossary Off
Versions: 1 2 3 4 5 6 7 8 9 10 11 12 13 14 15 16 17 18 19 20 21 22 23 24 25 26 27 28 29 30 31 32 33 34 35 36 37 38 39 40 41 42 43 44 45 46 47 48 49 50

000
ASUS43 KGRB 041900
RWRGRB

NORTH-CENTRAL AND NORTHEAST WISCONSIN REGIONAL WEATHER ROUNDUP
NATIONAL WEATHER SERVICE GREEN BAY WI
200 PM CDT FRI SEP 04 2015

WIZ005-009-010>012-018-019-042000-
NORTH CENTRAL WISCONSIN

CITY           SKY/WX    TMP DP  RH WIND       PRES   REMARKS
IRONWOOD       SUNNY     82  64  54 SE8       29.99F
MANITOWISH WTR NOT AVBL
ARBOR VITAE    NOT AVBL
EAGLE RIVER    NOT AVBL
LAND O LAKES   NOT AVBL
RHINELANDER    SUNNY     82  63  52 E10       30.07F
PHILLIPS       NOT AVBL
ANTIGO         NOT AVBL
TOMAHAWK       NOT AVBL
MERRILL        NOT AVBL
$$

WIZ013-073-042000-
NORTHEAST WISCONSIN

CITY           SKY/WX    TMP DP  RH WIND       PRES   REMARKS
IRON MOUNTAIN  SUNNY     81  64  56 E5        30.06F
MARINETTE      CLOUDY    73  63  68 E10       30.05S
$$

WIZ017-030-035>037-045-042000-
CENTRAL WISCONSIN

CITY           SKY/WX    TMP DP  RH WIND       PRES   REMARKS
MEDFORD        NOT AVBL
WAUSAU         MOSUNNY   80  66  62 MISG      30.04S
MOSINEE        PTSUNNY   75  68  78 S5        30.07S
MARSHFIELD     SUNNY     77  65  66 E9        30.05F
WISC RAPIDS    SUNNY     77  64  64 VRB6      30.06S
STEVENS POINT  NOT AVBL
WAUPACA        NOT AVBL
SHAWANO        NOT AVBL
CLINTONVILLE   NOT AVBL
WAUTOMA        NOT AVBL
$$

WIZ038-039-048-051-042000-
FOX VALLEY

CITY           SKY/WX    TMP DP  RH WIND       PRES   REMARKS
NWS GREEN BAY  CLOUDY    78  67  68 NE5       30.05R
APPLETON       PTSUNNY   73  63  68 VRB3      30.04S
OSHKOSH        CLOUDY    72  64  76 CALM      30.05S
FOND DU LAC    CLOUDY    74  67  78 NE7       30.05S
$$

WIZ022-050-052-042000-
EAST CENTRAL WISCONSIN

CITY           SKY/WX    TMP DP  RH WIND       PRES   REMARKS
EPHRAIM        NOT AVBL
STURGEON BAY   SUNNY     73  64  73 N12       30.07S
MANITOWOC      NOT AVBL
SHEBOYGAN      CLOUDY    73  67  81 NW6       30.04F
$$

LMZ563-521-522-541>543-042000-
LAKESHORE

STATION/POSITION TIME  TEMP    WIND        PRES    VSBY  WAVE
                       AIR SEA DIR/SP/G                  HT/PER
                 (UTC) (F)     (DEG/KT/KT) (MB)    (MI)  (FT/S)
SHEBOYGAN LKSHOR 1800   66     350/  7/  7 1017.5F
KEWAUNEE LKSHORE 1800   67      30/  4/  6 1016.6R
ALGOMA MARINA    1814           80/  6/  7   N/A
NORTHPORT PIER   1800   69      80/  6/  8 1017.6S
N MID LAKE BUOY  1750   68 67  350/  8/  8 1017.4R         2/ 4
S GREEN BAY BUOY 1800   68 67   40/  6/  8 1018.8S
SISTER BAY LKSHO 1811   81     110/  7/ 10   N/A
CHAMBERS ISLAND  1800   68     350/  9/ 10 1017.9R
MENOMINEE LKSHOR 1800   67      30/ 12/ 13 1016.6R
$$



USA.gov is the U.S. government's official web portal to all federal, state and local government web resources and services.